Home   Weather   Nîmes   Past weeks

Flag for France Past Weather in Nîmes, Languedoc-Roussillon, France — Yesterday and Last 2 Weeks

Now
30 °F

Clear.


Feels Like: 19 °F
Forecast: 24 / 45 °F
Wind: 16 mph from North

Location: Nimes / Garons

Current Time: Jan 18, 2017 at 5:20:49 am

Latest Report: Jan 18, 2017 at 5:00 am


Visibility: 10 mi

Pressure: 30.12 "Hg

Humidity: 55%

Dew Point: 16 °F

Location of NîmesLocation

Past Weather in Nîmes — Graph

°F

Nîmes Temperature Yesterday

Maximum temperature yesterday: 37 °F (at 12:30 pm)
Minimum temperature yesterday: 30 °F (at 5:30 am)
Average temperature yesterday: 33 °F

High & Low Weather Summary for the Past Weeks

 TemperatureHumidityPressure
High57 °F (Jan 12, 12:30 pm)94% (Jan 12, 11:00 pm)30.45 "Hg (Jan 12, 11:00 pm)
Low28 °F (Jan 4, 4:30 am)17% (Jan 7, 2:00 pm)29.77 "Hg (Jan 10, 2:30 pm)
Average39 °F56%30.13 "Hg
* Reported Jan 3 4:00 am — Jan 18 4:00 am, Nîmes, Weather by CustomWeather, © 2017

Note: Actual official high and low records may vary slightly from our data, if they occured in-between our weather recording intervals... More about our weather records

Advertising

Nîmes Weather History for the Previous 24 Hours

Scroll right to see more
 ConditionsComfort  
Time TempWeatherWind HumidityBarometerVisibility
4:00 am
Wed, Jan 18
30 °FClear.14 mph55%30.12 "Hg10 mi
3:30 am30 °FClear.16 mph55%30.12 "Hg10 mi
3:00 am30 °FClear.18 mph55%30.12 "Hg10 mi
2:30 am30 °FClear.17 mph55%30.12 "Hg10 mi
2:00 am30 °FClear.15 mph55%30.12 "Hg10 mi
1:30 am30 °FClear.15 mph55%30.12 "Hg10 mi
1:00 am30 °FClear.16 mph55%30.12 "Hg10 mi
12:30 am30 °FClear.18 mph55%30.12 "Hg10 mi
12:00 am30 °FClear.15 mph55%30.12 "Hg10 mi
11:30 pm
Tue, Jan 17
30 °FClear.18 mph55%30.12 "Hg10 mi
11:00 pm32 °FClear.20 mph51%30.09 "Hg10 mi
10:30 pm32 °FClear.20 mph51%30.09 "Hg10 mi
10:00 pm32 °FClear.22 mph51%30.09 "Hg10 mi
9:30 pm32 °FClear.24 mph51%30.09 "Hg10 mi
9:00 pm32 °FClear.20 mph51%30.09 "Hg10 mi
8:30 pm32 °FClear.22 mph51%30.09 "Hg10 mi
8:00 pm32 °FClear.21 mph51%30.07 "Hg10 mi
7:30 pm34 °FClear.24 mph48%30.07 "Hg10 mi
7:00 pm32 °FClear.23 mph51%30.07 "Hg10 mi
6:30 pm34 °FClear.21 mph48%30.07 "Hg10 mi
6:00 pm34 °FClear.24 mph48%30.07 "Hg10 mi
5:30 pm34 °FSunny.20 mph48%30.07 "Hg10 mi
5:00 pm34 °FSunny.26 mph48%30.04 "Hg10 mi
4:30 pm36 °FPassing clouds.22 mph44%30.04 "HgN/A
4:00 pm37 °FSunny.23 mph41%30.04 "Hg10 mi
3:30 pm37 °FSunny.26 mph41%30.04 "Hg10 mi
3:00 pm37 °FSunny.25 mph41%30.04 "Hg10 mi
2:30 pm37 °FSunny.26 mph41%30.04 "Hg10 mi
2:00 pm37 °FSunny.28 mph41%30.04 "Hg10 mi
1:30 pm37 °FSunny.24 mph41%30.04 "Hg10 mi
1:00 pm37 °FSunny.25 mph41%30.04 "Hg10 mi
12:30 pm37 °FSunny.22 mph41%30.04 "Hg10 mi
12:00 pm36 °FSunny.22 mph44%30.04 "Hg10 mi
11:30 am36 °FSunny.20 mph44%30.04 "Hg10 mi
11:00 am34 °FSunny.20 mph48%30.04 "Hg10 mi
10:30 am34 °FPassing clouds.22 mph48%30.04 "HgN/A
10:00 am32 °FSunny.22 mph51%30.04 "Hg10 mi
9:30 am32 °FPassing clouds.23 mph51%30.04 "HgN/A
9:00 am30 °FSunny.18 mph55%30.04 "Hg10 mi
8:30 am30 °FSunny.20 mph55%30.01 "Hg10 mi
8:00 am30 °FPassing clouds.21 mph55%30.01 "HgN/A
7:30 am30 °FClear.24 mph55%30.01 "Hg10 mi
7:00 am30 °FClear.23 mph55%30.01 "Hg10 mi
6:30 am30 °FClear.23 mph55%29.98 "Hg10 mi
6:00 am30 °FClear.28 mph55%29.98 "Hg10 mi
5:30 am30 °FClear.26 mph55%29.98 "Hg10 mi
5:00 am32 °FClear.25 mph51%29.98 "Hg10 mi
Weather by CustomWeather, © 2017

See weather overviewHow to use our weather pages